This demonstration page uses our WeatherBlox Daily Observations layout. Learn more.

Left ArrowRight Arrow

41.55636, -103.73856

Hourly Observations for December 28, 2018

Temp ( °F °C ) Dew Point ( °F °C ) Humidity (%) Winds ( mph kmh ) Pressure ( in mb ) Visibility ( mi km ) Precip ( " mm )
5:58 pm 17:58 Mostly Cloudy with Light Snow 16 -8.7 12 -11.2 82 82 N 20 31 30.10 1019 10 16 N/A
6:58 pm 18:58 Mostly Cloudy with Light Snow 15 -9.4 11 -11.8 83 83 N 22 35 30.13 1020 10 16 N/A
7:58 pm 19:58 Mostly Cloudy with Light Snow 14 -10 9 -13 79 79 N 20 31 30.15 1021 10 16 N/A
8:58 pm 20:58 Cloudy with Light Snow 13 -10.5 7 -13.8 77 77 N 17 28 30.17 1022 7 11 N/A
9:58 pm 21:58 Cloudy with Light Snow 13 -10.5 8 -13.3 80 80 NNW 16 26 30.19 1023 3 4 N/A
10:58 pm 22:58 Cloudy with Light Snow 13 -10.8 8 -13.1 83 83 NNW 16 26 30.33 1027 7 11 N/A
11:58 pm 23:58 Windy with Snow Likely 12 -10.9 9 -12.6 87 87 NNW 20 31 30.33 1027 2 3 N/A
12:58 am 00:58 Mostly Cloudy with Light Snow 11 -11.5 9 -13 89 89 N 18 30 30.35 1028 1 2 N/A
1:58 am 01:58 Mostly Cloudy with Light Snow 10 -12.2 7 -13.8 88 88 N 14 22 30.40 1029 4 6 N/A
2:58 am 02:58 Mostly Cloudy with Light Snow 10 -12.3 7 -13.9 88 88 N 16 26 30.26 1025 3 5 N/A
3:58 am 03:58 Cloudy with Light Snow 9 -12.6 6 -14.2 88 88 N 15 24 30.26 1025 9 14 N/A
4:58 am 04:58 Cloudy with Light Snow 9 -12.7 6 -14.3 88 88 N 8 13 30.27 1025 9 14 N/A
5:58 am 05:58 Cloudy with Light Snow 9 -12.6 6 -14.3 87 87 N 10 17 30.32 1027 9 14 N/A
6:58 am 06:58 Cloudy with Light Snow 9 -12.8 6 -14.5 87 87 N 13 20 30.34 1027 10 16 N/A
7:58 am 07:58 Cloudy 8 -13.2 5 -15 86 86 N 9 15 30.37 1029 10 16 N/A
8:58 am 08:58 Cloudy with Light Snow Showers 9 -13 6 -14.7 87 87 N 7 11 30.41 1030 10 16 N/A
9:58 am 09:58 Mostly Cloudy with Light Snow 10 -12.4 6 -14.6 84 84 NNW 14 22 30.39 1029 10 16 N/A
10:58 am 10:58 Mostly Cloudy with Light Snow Showers 10 -12 7 -14 85 85 NNW 8 13 30.38 1029 10 16 N/A
11:58 am 11:58 Mostly Cloudy with Light Snow Showers 12 -11.3 6 -14.4 78 78 NNW 14 22 30.35 1028 10 16 N/A
12:58 pm 12:58 Mostly Cloudy with Light Snow Showers 13 -10.8 7 -13.9 78 78 N 8 13 30.35 1028 10 16 N/A
1:58 pm 13:58 Mostly Sunny 15 -9.6 8 -13.2 75 75 NNE 12 19 30.33 1027 10 16 N/A
2:58 pm 14:58 Mostly Sunny 14 -10 7 -13.8 74 74 NNE 6 9 30.35 1028 10 16 N/A
3:58 pm 15:58 Sunny 13 -10.7 6 -14.4 74 74 N 3 6 30.37 1028 10 16 N/A
4:58 pm 16:58 Clear 9 -13 4 -15.3 83 83 Calm 30.38 1029 10 16 N/A

Powered by AerisWeather